Date String (YYYY-MM-DD hh:mm:ss) UTC,Instrument flags,Ambient pressure (hPa),Sample flow (lpm),Bypass flow (lpm),Sample temperature (°C),Ambient temperature (°C),ASC tube jacket temperature (°C),LED temperature (°C),Box temperature (°C),Sample RH (%),Span deviation,Mass concentration (μg/m³),Mass concentration (μg/m³),Mass concentration (μg/m³)
DateTimeUTC,F1_M11,P_M11,Q1_M11,Q2_M11,T1_M11,T2_M11,T3_M11,T4_M11,T5_M11,U1_M11,ZSPAN_M11,X0_M11,X2_M11,X1_M11
2022-08-03 03:00:00,,0825.7,5.00,0.00,30.6,27.0,00.0,38.8,31.4,33.4,0000.0,0005.83,0002.07,0001.38
2022-08-03 03:01:00,,0825.7,5.01,0.00,30.5,27.1,00.0,38.8,31.4,33.6,0000.0,0006.53,0002.04,0001.37
2022-08-03 03:02:00,,0825.7,5.00,0.00,30.5,27.3,00.0,38.8,31.4,33.3,0000.0,0006.47,0002.01,0001.36
2022-08-03 03:03:00,,0825.7,4.99,0.00,30.4,27.5,00.0,38.8,31.4,33.4,0000.0,0005.94,0001.97,0001.35
2022-08-03 03:04:00,,0826.1,5.01,0.00,30.4,27.7,00.0,38.9,31.5,32.8,0000.0,0004.96,0001.94,0001.34
2022-08-03 03:05:00,,0826.0,4.99,0.00,30.4,27.9,00.0,38.9,31.5,32.5,0000.0,0005.11,0002.00,0001.35
2022-08-03 03:06:00,,0826.0,5.00,0.00,30.4,28.0,00.0,38.9,31.6,32.3,0000.0,0005.12,0001.99,0001.35
2022-08-03 03:07:00,,0826.1,5.00,0.00,30.4,28.2,00.0,38.9,31.7,33.2,0000.0,0005.20,0001.97,0001.34
2022-08-03 03:08:00,,0825.9,5.00,0.00,30.4,28.3,00.0,38.9,31.7,32.5,0000.0,0005.38,0001.99,0001.34
2022-08-03 03:09:00,,0825.8,5.00,0.00,30.4,28.4,00.0,38.9,31.7,31.8,0000.0,0005.44,0002.01,0001.35
2022-08-03 03:10:00,,0825.8,5.01,0.00,30.4,28.5,00.0,38.9,31.8,31.7,0000.0,0005.47,0002.03,0001.35
2022-08-03 03:11:00,,0825.9,5.01,0.00,30.4,28.3,00.0,38.9,31.7,31.5,0000.0,0004.75,0002.06,0001.35
2022-08-03 03:12:00,,0825.9,5.00,0.00,30.3,27.5,00.0,38.9,31.5,30.8,0000.0,0003.94,0002.02,0001.33
2022-08-03 03:13:00,,0825.9,4.98,0.00,30.2,27.0,00.0,38.8,31.4,30.7,0000.0,0003.84,0001.99,0001.32
2022-08-03 03:14:00,,0825.9,5.00,0.00,30.2,26.9,00.0,38.8,31.4,31.4,0000.0,0003.80,0001.98,0001.32
2022-08-03 03:15:00,,0826.0,5.00,0.00,30.1,27.0,00.0,38.7,31.3,31.3,0000.0,0003.70,0001.95,0001.32
2022-08-03 03:16:00,,0826.0,5.01,0.00,30.0,27.2,00.0,38.7,31.3,32.7,0000.0,0003.58,0001.89,0001.31
2022-08-03 03:17:00,,0826.0,5.00,0.00,30.0,27.4,00.0,38.7,31.3,33.6,0000.0,0003.48,0001.86,0001.31
2022-08-03 03:18:00,,0826.1,4.99,0.00,30.0,27.6,00.0,38.7,31.4,32.9,0000.0,0003.38,0001.87,0001.32
2022-08-03 03:19:00,,0826.2,5.01,0.00,29.9,27.8,00.0,38.7,31.4,31.8,0000.0,0003.01,0001.82,0001.31
2022-08-03 03:20:00,,0826.2,5.00,0.00,29.9,27.9,00.0,38.7,31.5,31.7,0000.0,0003.01,0001.82,0001.30
2022-08-03 03:21:00,,0826.2,4.99,0.00,29.9,28.1,00.0,38.7,31.5,30.9,0000.0,0003.18,0001.81,0001.31
2022-08-03 03:22:00,,0826.1,5.00,0.00,30.0,28.2,00.0,38.6,31.6,30.8,0000.0,0003.22,0001.79,0001.29
2022-08-03 03:23:00,,0826.0,5.00,0.00,30.0,28.3,00.0,38.7,31.6,30.9,0000.0,0003.25,0001.81,0001.30
2022-08-03 03:24:00,,0826.0,5.00,0.00,30.0,28.4,00.0,38.7,31.7,31.1,0000.0,0003.38,0001.84,0001.31
2022-08-03 03:25:00,,0826.0,5.01,0.00,30.0,28.4,00.0,38.7,31.7,31.6,0000.0,0003.39,0001.82,0001.31
2022-08-03 03:26:00,,0826.0,4.99,0.00,30.0,27.8,00.0,38.6,31.5,32.0,0000.0,0003.39,0001.83,0001.32
2022-08-03 03:27:00,,0826.0,5.01,0.00,29.9,27.2,00.0,38.6,31.4,32.2,0000.0,0003.32,0001.80,0001.32
2022-08-03 03:28:00,,0826.0,5.00,0.00,29.8,27.0,00.0,38.6,31.3,31.6,0000.0,0003.36,0001.80,0001.31
2022-08-03 03:29:00,,0826.1,4.99,0.00,29.7,27.0,00.0,38.5,31.2,32.1,0000.0,0003.36,0001.79,0001.30
2022-08-03 03:30:00,,0826.1,5.00,0.00,29.7,27.1,00.0,38.5,31.1,32.9,0000.0,0003.33,0001.79,0001.31
2022-08-03 03:31:00,,0826.2,5.00,0.00,29.7,27.3,00.0,38.5,31.2,33.3,0000.0,0003.20,0001.77,0001.31
2022-08-03 03:32:00,,0826.2,5.01,0.00,29.6,27.5,00.0,38.4,31.3,33.9,0000.0,0003.02,0001.77,0001.31
2022-08-03 03:33:00,,0826.2,4.99,0.00,29.6,27.7,00.0,38.4,31.3,34.2,0000.0,0003.27,0001.79,0001.33
2022-08-03 03:34:00,,0826.2,5.00,0.00,29.7,27.8,00.0,38.4,31.4,34.9,0000.0,0003.40,0001.78,0001.33
2022-08-03 03:35:00,,0826.2,5.00,0.00,29.7,28.0,00.0,38.4,31.4,34.5,0000.0,0003.30,0001.75,0001.33
2022-08-03 03:36:00,,0826.2,5.02,0.00,29.8,28.1,00.0,38.4,31.5,34.5,0000.0,0003.37,0001.78,0001.34
2022-08-03 03:37:00,,0826.2,5.00,0.00,29.8,28.2,00.0,38.4,31.5,34.5,0000.0,0003.39,0001.80,0001.34
2022-08-03 03:38:00,,0826.2,5.01,0.00,29.8,28.4,00.0,38.5,31.6,35.0,0000.0,0003.44,0001.84,0001.35
2022-08-03 03:39:00,,0826.2,5.00,0.00,30.0,28.5,00.0,38.5,31.7,34.3,0000.0,0003.33,0001.81,0001.35
2022-08-03 03:40:00,,0826.2,5.00,0.00,30.1,28.4,00.0,38.5,31.7,33.9,0000.0,0003.29,0001.80,0001.35
2022-08-03 03:41:00,,0826.3,4.99,0.00,30.1,27.9,00.0,38.5,31.6,33.1,0000.0,0003.45,0001.84,0001.36
2022-08-03 03:42:00,,0826.2,5.01,0.00,30.1,27.5,00.0,38.5,31.5,32.1,0000.0,0003.50,0001.83,0001.36
2022-08-03 03:43:00,,0826.2,5.00,0.00,30.0,27.5,00.0,38.5,31.4,31.6,0000.0,0003.50,0001.81,0001.35
2022-08-03 03:44:00,,0826.2,5.01,0.00,30.0,27.5,00.0,38.5,31.4,32.0,0000.0,0003.08,0001.82,0001.35
2022-08-03 03:45:00,,0826.2,5.00,0.00,30.0,27.7,00.0,38.5,31.4,32.4,0000.0,0003.09,0001.89,0001.36
2022-08-03 03:46:00,,0826.2,4.99,0.00,29.9,27.8,00.0,38.5,31.4,32.7,0000.0,0003.10,0001.88,0001.36
2022-08-03 03:47:00,,0826.2,5.01,0.00,29.9,28.0,00.0,38.5,31.5,32.2,0000.0,0002.91,0001.81,0001.35
2022-08-03 03:48:00,,0826.2,5.00,0.00,30.0,28.1,00.0,38.5,31.5,32.2,0000.0,0002.87,0001.80,0001.34
2022-08-03 03:49:00,,0826.1,4.99,0.00,30.0,28.2,00.0,38.6,31.6,32.0,0000.0,0002.94,0001.81,0001.35
2022-08-03 03:50:00,,0826.2,4.99,0.00,30.0,28.4,00.0,38.6,31.6,31.8,0000.0,0003.03,0001.84,0001.36
2022-08-03 03:51:00,,0826.2,5.00,0.00,30.0,28.5,00.0,38.6,31.7,32.2,0000.0,0003.10,0001.86,0001.36
2022-08-03 03:52:00,,0826.1,5.01,0.00,30.0,28.3,00.0,38.6,31.6,31.6,0000.0,0002.98,0001.85,0001.37
2022-08-03 03:53:00,,0826.2,4.99,0.00,30.0,27.7,00.0,38.6,31.5,31.3,0000.0,0002.95,0001.86,0001.39
2022-08-03 03:54:00,,0826.2,5.01,0.00,29.9,27.5,00.0,38.5,31.4,31.6,0000.0,0002.95,0001.87,0001.40
2022-08-03 03:55:00,,0826.2,5.00,0.00,29.8,27.5,00.0,38.5,31.3,31.7,0000.0,0002.85,0001.84,0001.41
2022-08-03 03:56:00,,0826.2,4.98,0.00,29.8,27.6,00.0,38.5,31.3,31.5,0000.0,0002.67,0001.80,0001.42
2022-08-03 03:57:00,,0826.4,5.01,0.00,29.8,27.7,00.0,38.5,31.4,31.4,0000.0,0002.71,0001.82,0001.42
2022-08-03 03:58:00,,0826.5,4.99,0.00,29.8,27.9,00.0,38.5,31.4,31.7,0000.0,0002.91,0001.88,0001.44
2022-08-03 03:59:00,,0826.5,5.00,0.00,29.8,28.0,00.0,38.5,31.5,32.2,0000.0,0003.09,0001.92,0001.46
